Avery Island, LA

5:00 PM CDT on October 01, 2016 (GMT -0500)
Acadiana Regional

Weather History for KARA - February, 2013

Change the Weather History Date:

Monday, February 25, 2013

  Actual Average Record
Temperature  
Mean Temperature 64 °F 58 °F  
Max Temperature 73 °F 68 °F 81 °F (2000)
Min Temperature 55 °F 48 °F 25 °F (1965)
Degree Days  
Heating Degree Days 1 8  
Month to date heating degree days 136 256  
Since 1 July heating degree days 852 1193  
Cooling Degree Days 0 1  
Month to date cooling degree days 10 21  
Year to date cooling degree days 48 33  
Growing Degree Days 15 (Base 50)    
Moisture  
Dew Point 61 °F    
Average Humidity 70    
Maximum Humidity 97    
Minimum Humidity 43    
Precipitation  
Precipitation 0.18 in 0.16 in 1.82 in (1993)
Month to date precipitation 3.95 3.75  
Year to date precipitation 16.75 8.97  
Sea Level Pressure  
Sea Level Pressure 29.59 in    
Wind  
Wind Speed 11 mph (SW)    
Max Wind Speed 25 mph    
Max Gust Speed 33 mph    
Visibility 6 miles    
Events Fog , Rain , Thunderstorm    
T = Trace of Precipitation, MM = Missing Value Source: NWS Daily Summary

Daily Weather History Graph

Daily Weather History Graph

Search for Another Location

Airport or City:

Trip Planner

Search our weather history database for the weather conditions in past years. The results will help you decide how hot, cold, wet, or windy it might be!

Date:

Astronomy

Feb. 25, 2013 Rise Set
Actual Time 6:37 AM CST 6:03 PM CST
Civil Twilight 6:13 AM CST 6:28 PM CST
Nautical Twilight 5:45 AM CST 6:55 PM CST
Astronomical Twilight 5:17 AM CST 7:23 PM CST
Moon 6:12 PM CST (2/25) 6:10 AM CST (2/25)
Length of Visible Light 12h 14m
Length of Day
11h 26m
Full, 100% of the Moon is Illuminated
Feb 25
Full
Feb 25
Full
Mar 4
Last Quarter
Mar 11
New
Mar 19
First Quarter

Hourly Weather History & Observations

Time (CST) Temp. Dew Point Humidity Pressure Visibility Wind Dir Wind Speed Gust Speed Precip Events Conditions
12:36 AM - - N/A% 29.70 in - North - - N/A Thunderstorm Thunderstorm
12:53 AM - - N/A% 29.68 in - North - - N/A Thunderstorm Thunderstorm
1:34 AM - - N/A% 29.70 in - North - - N/A   Unknown
1:53 AM - - N/A% 29.70 in - North - - N/A   Unknown
2:53 AM - - N/A% 29.68 in - North - - N/A   Unknown
3:53 AM - - N/A% 29.67 in - North - - N/A   Unknown
4:53 AM - - N/A% 29.65 in - North - - N/A   Unknown
5:53 AM - - N/A% 29.65 in - North - - N/A   Unknown
6:51 AM 62.6 °F 60.8 °F 94% 29.68 in 10.0 mi Calm Calm - N/A   Overcast
6:53 AM - - N/A% 29.68 in - North - - N/A   Unknown
7:48 AM 62.6 °F 60.8 °F 94% 29.68 in 2.0 mi Variable 6.9 mph - N/A   Overcast
7:53 AM - - N/A% 29.68 in - North - - N/A   Unknown
8:53 AM - - N/A% 29.68 in - North - - N/A   Unknown
8:55 AM 64.4 °F 62.6 °F 94% 29.67 in 1.0 mi ESE 11.5 mph - N/A   Mist
9:53 AM - - N/A% 29.68 in - North - - N/A   Unknown
10:53 AM - - N/A% 29.67 in - North - - N/A   Unknown
10:55 AM - - N/A% 29.66 in 0.5 mi ESE 8.1 mph - N/A Fog Fog
11:34 AM 68.0 °F 64.4 °F 88% 29.64 in 1.0 mi North - - N/A   Mist
11:41 AM 68.0 °F 66.2 °F 94% 29.64 in 0.8 mi North - - N/A   Mist
12:16 PM 66.2 °F 64.4 °F 94% 29.60 in 1.0 mi North - - 0.07 in Rain Light Rain
12:27 PM 66.2 °F 64.4 °F 94% 29.58 in 3.0 mi North - - 0.08 in Rain Light Rain
12:34 PM 66.2 °F 64.4 °F 94% 29.59 in 1.8 mi North - - 0.10 in Rain Rain
12:53 PM 66.9 °F 64.9 °F 93% 29.57 in 1.8 mi North - - 0.18 in   Overcast
1:11 PM 68.0 °F 66.2 °F 94% 29.55 in 1.8 mi North - - N/A   Overcast
1:24 PM 68.0 °F 66.2 °F 94% 29.54 in 0.5 mi North - - N/A Fog Fog
1:53 PM 70.0 °F 68.0 °F 93% 29.52 in 1.2 mi North - - N/A   Overcast
1:59 PM 71.6 °F 69.8 °F 94% 29.51 in 3.0 mi North - - N/A   Overcast
2:07 PM 71.6 °F 69.8 °F 94% 29.50 in 5.0 mi North - - N/A   Overcast
2:24 PM 71.6 °F 69.8 °F 94% 29.50 in 6.0 mi North - - N/A   Overcast
2:53 PM 72.0 °F 69.1 °F 91% 29.48 in 6.0 mi SSE 15.0 mph - N/A   Overcast
3:53 PM 72.0 °F 68.0 °F 87% 29.43 in 7.0 mi South 18.4 mph 25.3 mph 0.00 in   Overcast
4:18 PM 73.4 °F 68.0 °F 83% 29.45 in 10.0 mi WSW 12.7 mph 19.6 mph N/A   Mostly Cloudy
4:26 PM 73.4 °F 68.0 °F 83% 29.45 in 10.0 mi SSW 17.3 mph 20.7 mph N/A   Scattered Clouds
4:53 PM 72.0 °F 66.9 °F 84% 29.46 in 10.0 mi SSW 24.2 mph 32.2 mph N/A   Mostly Cloudy
5:09 PM 71.6 °F 66.2 °F 83% 29.48 in 9.0 mi SSW 24.2 mph 31.1 mph N/A   Overcast
5:18 PM 69.8 °F 64.4 °F 83% 29.48 in 8.0 mi SSW 18.4 mph 28.8 mph N/A   Overcast
5:51 PM 69.8 °F 64.4 °F 83% 29.49 in 8.0 mi WSW 16.1 mph 21.9 mph N/A   Overcast
5:53 PM 70.0 °F 64.9 °F 84% 29.49 in 8.0 mi WSW 13.8 mph 21.9 mph N/A   Overcast
6:00 PM 69.8 °F 64.4 °F 83% 29.50 in 9.0 mi WSW 13.8 mph - N/A   Overcast
6:53 PM 68.0 °F 54.0 °F 61% 29.51 in 10.0 mi WSW 11.5 mph - N/A   Overcast
7:53 PM 64.9 °F 48.9 °F 56% 29.53 in 10.0 mi WSW 11.5 mph - N/A   Clear
8:53 PM 63.0 °F 45.0 °F 52% 29.55 in 10.0 mi WSW 13.8 mph 21.9 mph N/A   Clear
9:53 PM 61.0 °F 39.0 °F 44% 29.59 in 10.0 mi West 16.1 mph 23.0 mph N/A   Clear
10:53 PM 57.9 °F 36.0 °F 44% 29.63 in 10.0 mi West 17.3 mph 28.8 mph N/A   Clear
11:53 PM 55.0 °F 36.0 °F 49% 29.63 in 10.0 mi West 21.9 mph 32.2 mph N/A   Clear